Le nostre stazioni meteo in Italia

Pubblicità
Il mio iltempo24.it
Passo Dei Giovi, Italia (16119): Temperatura & dewpoint: 29.05.2020 20:00:00 - 04.06.2020 20:00:00 (CEST)Passo Dei Giovi, Italia (16119): velocità del vento: 29.05.2020 20:00:00 - 04.06.2020 20:00:00 (CEST)Passo Dei Giovi, Italia (16119): direzione del vento: 29.05.2020 20:00:00 - 04.06.2020 20:00:00 (CEST)Passo Dei Giovi, Italia (16119): reduced air pressure: 29.05.2020 20:00:00 - 04.06.2020 20:00:00 (CEST)Passo Dei Giovi, Italia (16119): visibility: 29.05.2020 20:00:00 - 04.06.2020 20:00:00 (CEST)
Data & Tempo tt [°C] td [°C] ff [km/h] ff [kn] dd ppp [hPa] vv [km]
04.06.2020 20:00:00 13,6 12,0 8 4 S 996,5 12
04.06.2020 19:00:00 - - - - - - -
04.06.2020 18:00:00 13,0 12,0 - - - - 7
04.06.2020 17:00:00 13,4 11,8 18 10 S 999,8 8
04.06.2020 16:00:00 - - - - - - -
04.06.2020 15:00:00 13,0 12,0 - - - - 6
04.06.2020 14:00:00 13,4 10,8 22 12 S 1001,8 12
04.06.2020 13:00:00 13,0 12,0 - - - - 8
04.06.2020 12:00:00 13,0 12,0 - - - - 0,4
04.06.2020 11:00:00 13,2 12,1 29 16 S 1002,4 0,2
04.06.2020 10:00:00 14,0 12,0 - - - - 5
04.06.2020 09:00:00 13,0 12,0 - - - - 4,0
04.06.2020 08:00:00 14,0 12,7 18 10 S 1003,2 5
04.06.2020 07:00:00 - - - - - - -
04.06.2020 06:00:00 - - - - - - -
04.06.2020 05:00:00 - - - - - - -
04.06.2020 04:00:00 - - - - - - -
04.06.2020 03:00:00 - - - - - - -
04.06.2020 02:00:00 - - - - - - -
04.06.2020 01:00:00 - - - - - - -
04.06.2020 00:00:00 - - - - - - -
03.06.2020 23:00:00 - - - - - - -
03.06.2020 22:00:00 - - - - - - -
03.06.2020 21:00:00 - - - - - - -
03.06.2020 20:00:00 16,0 13,7 26 14 S 1007,4 12
03.06.2020 19:00:00 - - - - - - -
03.06.2020 18:00:00 - - - - - - -
03.06.2020 17:00:00 16,4 16,1 18 10 S 1008,2 10
03.06.2020 16:00:00 18,0 15,0 - - - - 10
03.06.2020 15:00:00 - - - - - - -
03.06.2020 14:00:00 18,0 15,8 18 10 S 1009,5 12
03.06.2020 13:00:00 - - - - - - -
03.06.2020 12:00:00 - - - - - - -
03.06.2020 11:00:00 18,4 14,9 15 8 S 1010,2 12
03.06.2020 10:00:00 - - - - - - -
03.06.2020 09:00:00 - - - - - - -
03.06.2020 08:00:00 15,0 13,9 8 4 S 1011,4 10
03.06.2020 07:00:00 - - - - - - -
03.06.2020 06:00:00 - - - - - - -
03.06.2020 05:00:00 - - - - - - -
03.06.2020 04:00:00 - - - - - - -
03.06.2020 03:00:00 - - - - - - -
03.06.2020 02:00:00 - - - - - - -
03.06.2020 01:00:00 - - - - - - -
03.06.2020 00:00:00 - - - - - - -
02.06.2020 23:00:00 - - - - - - -
02.06.2020 22:00:00 - - - - - - -
02.06.2020 21:00:00 - - - - - - -
02.06.2020 20:00:00 - - - - - - -
02.06.2020 19:00:00 - - - - - - -
02.06.2020 18:00:00 - - - - - - -
02.06.2020 17:00:00 - - - - - - -
02.06.2020 16:00:00 - - - - - - -
02.06.2020 15:00:00 - - - - - - -
02.06.2020 14:00:00 - - - - - - -
02.06.2020 13:00:00 - - - - - - -
02.06.2020 12:00:00 - - - - - - -
02.06.2020 11:00:00 - - - - - - -
02.06.2020 10:00:00 - - - - - - -
02.06.2020 09:00:00 - - - - - - -
02.06.2020 08:00:00 - - - - - - -
02.06.2020 07:00:00 - - - - - - -
02.06.2020 06:00:00 - - - - - - -
02.06.2020 05:00:00 - - - - - - -
02.06.2020 04:00:00 - - - - - - -
02.06.2020 03:00:00 - - - - - - -
02.06.2020 02:00:00 - - - - - - -
02.06.2020 01:00:00 - - - - - - -
02.06.2020 00:00:00 - - - - - - -
01.06.2020 23:00:00 - - - - - - -
01.06.2020 22:00:00 - - - - - - -
01.06.2020 21:00:00 - - - - - - -
01.06.2020 20:00:00 18,8 13,9 5 3 S 1016,4 15
01.06.2020 19:00:00 - - - - - - -
01.06.2020 18:00:00 - - - - - - -
01.06.2020 17:00:00 21,4 15,0 4 2 S 1016,4 12
01.06.2020 16:00:00 - - - - - - -
01.06.2020 15:00:00 - - - - - - -
01.06.2020 14:00:00 20,4 11,1 4 2 N 1016,7 12
01.06.2020 13:00:00 - - - - - - -
01.06.2020 12:00:00 - - - - - - -
01.06.2020 11:00:00 18,6 11,2 5 3 N 1017,3 12
01.06.2020 10:00:00 - - - - - - -
01.06.2020 09:00:00 - - - - - - -
01.06.2020 08:00:00 11,0 10,2 9 5 N 1018,6 12
01.06.2020 07:00:00 - - - - - - -
01.06.2020 06:00:00 - - - - - - -
01.06.2020 05:00:00 - - - - - - -
01.06.2020 04:00:00 - - - - - - -
01.06.2020 03:00:00 - - - - - - -
01.06.2020 02:00:00 - - - - - - -
01.06.2020 01:00:00 - - - - - - -
01.06.2020 00:00:00 - - - - - - -
31.05.2020 23:00:00 - - - - - - -
31.05.2020 22:00:00 - - - - - - -
31.05.2020 21:00:00 - - - - - - -
31.05.2020 20:00:00 - - - - - - -
31.05.2020 19:00:00 - - - - - - -
31.05.2020 18:00:00 - - - - - - -
31.05.2020 17:00:00 - - - - - - -
31.05.2020 16:00:00 - - - - - - -
31.05.2020 15:00:00 - - - - - - -
31.05.2020 14:00:00 - - - - - - -
31.05.2020 13:00:00 - - - - - - -
31.05.2020 12:00:00 - - - - - - -
31.05.2020 11:00:00 - - - - - - -
31.05.2020 10:00:00 - - - - - - -
31.05.2020 09:00:00 - - - - - - -
31.05.2020 08:00:00 - - - - - - -
31.05.2020 07:00:00 - - - - - - -
31.05.2020 06:00:00 - - - - - - -
31.05.2020 05:00:00 - - - - - - -
31.05.2020 04:00:00 - - - - - - -
31.05.2020 03:00:00 - - - - - - -
31.05.2020 02:00:00 - - - - - - -
31.05.2020 01:00:00 - - - - - - -
31.05.2020 00:00:00 - - - - - - -
30.05.2020 23:00:00 - - - - - - -
30.05.2020 22:00:00 - - - - - - -
30.05.2020 21:00:00 - - - - - - -
30.05.2020 20:00:00 17,0 5,6 11 6 S 1014,7 15
30.05.2020 19:00:00 - - - - - - -
30.05.2020 18:00:00 - - - - - - -
30.05.2020 17:00:00 18,8 6,0 18 10 S 1014,8 15
30.05.2020 16:00:00 19,0 5,0 - - - - 10
30.05.2020 15:00:00 - - - - - - -
30.05.2020 14:00:00 18,4 5,6 11 6 S 1015,7 15
30.05.2020 13:00:00 - - - - - - -
30.05.2020 12:00:00 - - - - - - -
30.05.2020 11:00:00 16,6 2,2 5 3 N 1017,3 15
30.05.2020 10:00:00 - - - - - - -
30.05.2020 09:00:00 - - - - - - -
30.05.2020 08:00:00 9,6 7,4 15 8 N 1019,2 15
30.05.2020 07:00:00 - - - - - - -
30.05.2020 06:00:00 - - - - - - -
30.05.2020 05:00:00 - - - - - - -
30.05.2020 04:00:00 - - - - - - -
30.05.2020 03:00:00 - - - - - - -
30.05.2020 02:00:00 - - - - - - -
30.05.2020 01:00:00 - - - - - - -
30.05.2020 00:00:00 - - - - - - -
29.05.2020 23:00:00 - - - - - - -
29.05.2020 22:00:00 - - - - - - -
29.05.2020 21:00:00 - - - - - - -
29.05.2020 20:00:00 17,2 11,7 4 2 S 1018,5 15

tt = Temperatura
td = dewpoint
ff = velocità del vento
dd = direzione del vento
ppp = reduced air pressure
vv = visibility

Stazioni seguenti

WeatherPro
AMSI
MeteoEarth